Temp
3 2 2 2 2 1 1 0 -0 -1 -1 -1 -1 -1 -1 -1 -1 -2 -3 -4 -4 -5 -5 -6 -6 -6 -6 -7 -7 -7 -7 -7 -7 -7 -7 -7 -7 -7 -7 -7 -7 -7
3 2 2 2 2 1 1 0 -0 -1 -1 -1 -1 -2 -2 -2 -2 -2 -2 -3 -4 -5 -5 -6 -6 -6 -6 -7 -7 -7 -7 -7 -7 -7 -7 -7 -7 -7 -7 -7 -7 -7
3 2 2 2 2 2 1 1 0 -0 -1 -1 -2 -2 -2 -2 -2 -2 -2 -3 -4 -5 -6 -6 -6 -6 -7 -7 -7 -7 -7 -7 -7 -7 -7 -7 -7 -7 -7 -8 -8 -7
2 2 2 2 2 2 1 1 0 -0 -1 -1 -2 -2 -2 -3 -3 -3 -3 -3 -4 -5 -6 -6 -6 -7 -7 -7 -7 -7 -7 -7 -7 -7 -7 -7 -7 -7 -8 -8 -8 -8
2 2 2 2 2 1 1 1 0 -0 -1 -1 -2 -2 -3 -3 -3 -3 -3 -4 -4 -5 -6 -6 -6 -7 -7 -7 -7 -8 -8 -8 -8 -8 -8 -8 -8 -8 -8 -8 -8 -8
2 2 2 1 1 1 1 1 1 0 -1 -1 -2 -3 -3 -3 -4 -4 -4 -4 -5 -5 -6 -6 -6 -7 -7 -7 -7 -8 -8 -8 -8 -8 -8 -8 -8 -8 -8 -8 -8 -8
2 1 1 1 1 1 1 1 0 0 -1 -2 -2 -3 -3 -4 -4 -4 -4 -5 -5 -6 -6 -6 -7 -7 -7 -7 -8 -8 -8 -8 -8 -8 -8 -8 -8 -8 -8 -8 -8 -8
1 1 1 1 1 1 1 0 0 -0 -1 -2 -3 -3 -4 -4 -4 -5 -5 -5 -6 -6 -7 -7 -7 -7 -7 -8 -8 -8 -8 -9 -9 -9 -9 -8 -8 -8 -8 -8 -8 -8
-0 -0 -0 -0 0 0 0 0 -0 -0 -1 -2 -3 -3 -4 -5 -5 -5 -6 -6 -6 -7 -7 -7 -7 -8 -8 -8 -8 -9 -9 -9 -9 -9 -9 -9 -9 -9 -8 -8 -8 -9
-1 -1 -1 -1 -1 -1 -0 -0 -0 -1 -1 -2 -3 -4 -4 -5 -5 -6 -6 -7 -7 -7 -7 -8 -8 -8 -8 -8 -9 -9 -9 -9 -9 -9 -9 -9 -9 -9 -9 -9 -9 -9
-3 -3 -3 -2 -2 -2 -1 -2 -2 -2 -2 -3 -3 -4 -5 -5 -6 -6 -7 -7 -8 -8 -8 -8 -8 -8 -9 -9 -9 -9 -9 -9 -9 -9 -9 -9 -9 -9 -9 -9 -9 -9
-4 -4 -4 -3 -3 -3 -3 -4 -4 -4 -3 -4 -4 -4 -5 -6 -6 -7 -7 -8 -8 -8 -8 -9 -9 -9 -9 -9 -9 -9 -10 -10 -10 -10 -10 -10 -10 -10 -9 -9 -9 -9
-6 -5 -5 -5 -5 -5 -6 -6 -5 -5 -5 -5 -5 -5 -5 -6 -7 -7 -7 -8 -8 -8 -9 -9 -9 -9 -9 -10 -10 -10 -10 -10 -10 -10 -10 -10 -10 -10 -10 -10 -10 -10
-7 -6 -6 -7 -7 -8 -8 -8 -8 -7 -7 -7 -6 -6 -6 -7 -7 -8 -8 -8 -9 -9 -9 -9 -9 -10 -10 -10 -10 -10 -10 -10 -10 -10 -10 -10 -10 -10 -10 -10 -10 -10
-7 -7 -8 -9 -9 -9 -10 -10 -9 -9 -9 -9 -8 -8 -8 -8 -8 -8 -9 -9 -9 -9 -9 -10 -10 -10 -10 -10 -11 -11 -11 -11 -11 -11 -11 -11 -11 -11 -11 -11 -11 -11
-9 -9 -10 -10 -10 -10 -11 -11 -11 -10 -10 -10 -10 -10 -9 -9 -9 -9 -9 -9 -10 -10 -10 -10 -10 -11 -11 -11 -11 -11 -11 -11 -11 -11 -11 -11 -11 -11 -11 -12 -12 -12
-10 -11 -11 -11 -11 -12 -12 -12 -12 -12 -12 -12 -11 -11 -10 -10 -9 -9 -9 -10 -10 -10 -10 -11 -11 -11 -11 -11 -11 -11 -11 -11 -12 -12 -12 -12 -12 -12 -12 -12 -12 -12
-12 -12 -13 -13 -13 -14 -14 -14 -14 -13 -13 -13 -13 -12 -12 -11 -10 -10 -10 -10 -10 -10 -11 -11 -11 -11 -11 -11 -11 -11 -11 -11 -12 -12 -12 -12 -12 -12 -12 -13 -13 -13
-13 -14 -14 -15 -15 -16 -16 -16 -15 -15 -15 -14 -14 -14 -13 -12 -11 -11 -10 -10 -10 -11 -11 -11 -11 -11 -11 -11 -11 -11 -10 -11 -12 -12 -12 -12 -12 -13 -13 -13 -13 -13
-15 -15 -16 -17 -17 -17 -17 -17 -16 -16 -16 -16 -15 -15 -14 -13 -12 -12 -11 -11 -11 -11 -11 -11 -12 -12 -11 -11 -11 -11 -10 -11 -12 -12 -13 -13 -13 -13 -13 -13 -14 -14
-16 -17 -17 -18 -18 -18 -18 -18 -18 -17 -17 -17 -16 -15 -15 -14 -13 -13 -12 -12 -11 -11 -11 -12 -12 -12 -12 -11 -11 -11 -10 -11 -11 -12 -13 -13 -13 -13 -14 -14 -14 -14
-17 -18 -19 -19 -19 -19 -19 -19 -18 -18 -18 -18 -17 -16 -15 -14 -13 -13 -12 -11 -11 -11 -12 -12 -12 -12 -12 -11 -11 -11 -11 -11 -11 -12 -13 -13 -14 -14 -14 -14 -14 -14
-18 -19 -19 -19 -19 -19 -19 -19 -19 -19 -19 -18 -18 -17 -16 -15 -14 -13 -12 -12 -12 -12 -12 -13 -13 -13 -12 -12 -11 -11 -11 -11 -11 -12 -13 -14 -14 -14 -14 -14 -14 -14
-19 -20 -20 -20 -20 -20 -20 -20 -20 -20 -19 -19 -18 -17 -16 -15 -15 -14 -13 -12 -12 -12 -13 -13 -13 -13 -13 -12 -12 -11 -11 -12 -12 -12 -13 -14 -14 -14 -14 -14 -14 -14
-20 -20 -21 -21 -21 -21 -21 -21 -20 -20 -20 -19 -19 -18 -17 -16 -15 -14 -13 -13 -13 -13 -13 -13 -13 -14 -13 -12 -12 -12 -12 -12 -12 -12 -13 -13 -13 -14 -14 -14 -14 -14
-21 -21 -21 -21 -21 -21 -21 -21 -21 -20 -20 -20 -19 -18 -17 -16 -15 -14 -13 -13 -13 -13 -14 -14 -14 -14 -14 -13 -13 -12 -12 -12 -12 -12 -13 -13 -13 -13 -14 -14 -14 -14
Height
788 786 784 782 779 777 775 773 772 771 770 769 767 765 763 762 760 757 755 754 754 754 754 754 754 754 753 753 753 753 753 752 752 752 752 752 752 751 751 751 752 753
785 783 781 779 776 773 771 769 767 766 765 765 764 762 761 759 758 755 753 751 751 750 750 750 750 750 750 750 750 749 749 749 749 749 748 748 748 748 747 748 748 749
781 779 777 775 772 770 767 765 762 761 760 760 760 759 758 756 754 753 751 749 747 747 747 746 746 746 746 746 746 745 745 745 745 745 745 744 744 744 744 745 745 745
777 775 773 770 768 766 764 761 758 756 755 754 755 755 754 753 751 750 748 746 744 743 743 743 742 742 742 742 742 742 741 741 741 742 742 741 741 741 741 741 741 742
773 771 769 767 764 762 760 757 754 752 750 749 749 749 750 749 748 747 745 743 741 740 739 739 738 738 738 738 738 738 737 737 737 738 738 737 738 738 738 738 738 738
771 768 766 763 760 758 755 752 750 748 745 744 744 744 745 745 744 743 742 740 739 737 736 735 734 734 734 734 734 733 733 733 733 734 734 733 734 734 735 735 734 734
768 766 763 760 757 754 751 748 746 743 741 740 739 739 739 740 740 739 738 737 735 734 733 732 731 730 729 729 729 728 728 729 729 730 729 729 730 730 731 731 731 731
767 763 760 757 753 750 747 744 741 739 737 735 733 733 734 734 734 734 734 733 731 730 729 728 727 726 725 725 724 724 724 724 725 725 725 725 725 725 726 727 728 728
765 761 758 754 751 747 744 741 738 735 732 730 728 727 727 727 727 728 729 729 727 726 725 724 723 722 721 720 719 719 719 719 720 721 721 721 721 721 721 723 724 724
764 760 757 753 749 745 741 738 734 731 729 726 724 722 721 722 721 721 723 723 723 722 720 719 718 718 717 716 715 715 715 715 715 716 716 716 717 717 718 718 719 720
763 760 756 752 748 744 740 736 733 730 727 724 722 719 718 717 717 716 717 718 718 717 716 715 714 713 713 712 711 710 710 710 711 711 712 712 713 713 714 714 715 716
763 759 755 750 747 743 739 735 732 728 725 722 720 717 715 713 712 711 711 712 712 712 711 710 709 709 708 707 707 706 706 706 706 707 707 708 709 709 710 710 711 712
762 758 753 749 746 742 738 735 731 728 724 722 719 715 712 710 707 706 706 706 706 706 706 705 704 703 702 702 702 702 702 702 702 703 703 704 705 705 706 707 707 709
761 756 752 749 746 742 738 735 731 728 725 722 718 714 710 708 705 703 702 702 701 700 700 699 698 697 697 697 697 697 697 697 698 698 699 699 700 701 702 703 704 705
759 755 752 748 745 741 737 734 730 727 724 720 717 713 710 707 704 701 699 697 695 695 694 693 692 691 691 692 692 693 693 693 693 694 694 695 696 697 698 699 700 701
758 755 751 747 744 740 736 732 728 724 720 716 713 709 706 704 700 697 694 692 690 689 688 687 686 685 685 686 687 687 687 688 688 689 690 691 692 693 694 695 697 698
758 754 751 747 744 740 735 730 726 721 717 713 708 704 701 698 695 691 688 686 684 683 682 681 679 679 679 680 681 681 682 682 684 685 686 687 688 689 690 691 693 695
757 753 749 745 741 737 732 727 722 717 713 708 703 699 696 692 689 685 682 680 679 676 675 674 673 673 674 674 675 675 676 677 678 680 682 683 684 685 686 688 690 691
756 751 746 742 737 733 728 723 718 713 709 705 699 695 691 686 682 679 676 674 672 670 668 667 667 667 668 668 669 670 671 672 673 674 676 678 680 681 683 685 687 688
755 750 744 739 734 730 724 719 715 710 706 702 696 691 686 681 677 674 671 669 666 664 662 661 660 662 663 663 663 664 665 667 668 669 671 673 675 677 679 681 683 685
752 746 741 735 731 726 721 716 712 707 702 698 693 687 683 678 673 669 665 662 660 658 656 655 655 656 657 657 658 659 660 663 664 664 666 669 671 673 675 677 680 682
748 743 737 732 727 722 717 712 708 704 699 695 689 683 679 674 669 665 660 657 655 654 652 650 650 652 652 653 654 655 656 659 660 660 662 664 667 669 671 674 676 678
746 741 735 729 724 719 714 709 705 701 696 692 686 680 675 671 666 661 657 653 651 650 648 646 646 648 649 649 650 652 653 655 657 657 658 660 663 665 668 670 672 674
745 740 735 728 722 716 711 706 702 697 693 689 684 678 672 668 663 657 653 650 648 646 645 643 643 644 645 646 647 648 649 651 653 654 655 657 659 662 664 666 668 670
744 739 733 727 720 714 709 705 699 694 690 686 682 676 670 665 659 653 649 647 645 642 641 640 640 641 642 643 644 644 646 648 650 651 652 654 656 659 661 662 664 666
743 737 731 725 719 712 707 702 697 691 686 682 677 672 667 661 655 650 646 644 642 640 638 638 638 639 640 641 642 642 642 644 646 647 649 651 653 655 657 659 661 662
Wind_Speed
24 25 25 27 28 27 26 26 26 26 27 29 30 31 32 32 31 30 30 32 33 34 34 33 33 32 31 31 30 31 30 29 30 30 30 31 31 30 30 29 28 27
26 27 28 29 30 29 27 25 25 25 26 28 30 31 32 32 32 31 29 30 31 33 34 33 33 33 32 32 31 31 31 30 30 30 30 30 30 30 31 30 29 28
28 28 28 30 30 30 29 27 25 24 25 27 28 29 31 31 32 32 31 30 30 32 33 33 33 33 33 32 32 32 32 31 30 29 29 30 30 30 30 30 30 29
29 29 30 30 30 31 31 29 26 24 24 25 26 27 29 30 31 32 31 31 31 31 32 32 32 32 33 33 32 32 32 32 31 29 29 30 30 30 29 29 29 29
32 31 31 31 31 33 33 31 29 26 25 26 26 26 27 29 31 31 31 32 32 32 32 32 32 32 32 32 32 32 31 31 31 30 30 30 30 30 30 29 28 29
33 33 33 33 34 35 34 32 31 29 27 25 24 25 26 27 29 30 31 33 34 34 34 33 32 32 32 32 32 32 32 31 30 30 30 30 30 30 30 29 29 29
35 36 36 36 36 36 35 33 32 30 27 24 22 23 25 27 29 30 31 33 34 35 35 34 34 33 33 32 32 33 32 31 31 30 30 31 30 30 30 30 30 29
38 39 39 38 38 37 35 33 31 29 26 23 21 21 22 25 27 28 30 32 33 34 35 35 35 34 34 33 33 33 32 32 31 30 31 31 30 30 31 30 30 30
40 40 40 40 40 38 37 35 33 31 27 24 22 22 21 23 25 26 28 30 32 34 35 35 35 35 34 34 34 34 33 32 32 31 31 31 31 31 30 29 29 30
40 40 41 41 41 40 39 38 36 32 27 25 24 22 20 20 21 23 25 28 31 33 34 35 35 34 34 35 35 35 34 33 32 32 32 31 32 31 30 30 29 29
40 41 41 40 40 40 39 36 34 32 30 28 26 24 21 20 20 22 24 26 29 32 34 35 35 35 35 35 35 35 35 34 33 32 32 32 32 31 31 31 30 29
40 41 40 40 40 40 39 38 37 35 33 30 27 25 24 23 22 22 24 26 29 31 33 34 35 36 36 36 36 35 34 34 33 32 32 31 31 31 31 31 31 30
42 42 39 38 39 38 37 37 36 35 33 32 30 30 28 26 23 23 24 27 29 31 33 34 35 35 36 36 35 35 34 33 33 32 32 31 31 31 30 30 30 30
42 39 36 36 38 40 40 39 38 37 36 35 35 33 30 26 23 24 26 28 29 31 33 34 35 35 35 35 35 34 33 33 33 32 31 31 30 30 30 30 29 29
36 34 37 42 45 45 45 44 43 42 41 40 38 37 33 30 29 29 29 30 30 31 33 34 34 35 35 35 35 34 34 33 33 32 31 30 29 29 29 29 30 30
34 38 43 46 46 45 45 46 48 48 48 47 46 45 43 40 37 34 31 31 31 32 33 34 34 36 36 36 36 35 35 34 33 31 30 30 29 28 28 29 30 30
38 41 44 44 45 46 48 50 52 51 51 51 51 50 49 46 42 38 35 34 34 34 34 34 35 36 35 36 36 37 36 35 33 31 30 30 29 28 28 28 28 29
40 42 44 46 49 51 51 52 51 50 49 49 49 48 48 47 45 43 41 38 36 35 35 35 36 36 35 35 37 37 37 35 34 33 31 30 29 28 28 26 26 27
41 44 47 49 50 51 50 49 47 46 45 45 46 46 45 44 44 42 42 40 36 35 35 35 36 35 34 36 37 38 38 36 34 34 33 31 30 29 28 26 25 24
41 44 47 48 49 48 47 46 45 45 45 44 44 44 42 41 40 39 41 41 38 36 35 35 35 33 33 36 37 37 39 36 33 33 34 33 31 30 29 27 26 25
42 44 46 48 48 46 46 46 45 45 44 43 43 42 40 40 39 39 40 40 36 33 33 33 32 30 32 36 36 36 37 35 30 30 33 33 32 32 31 30 29 27
43 44 46 47 46 46 46 45 43 43 43 43 42 41 39 38 38 37 37 35 31 29 30 31 30 29 32 34 34 34 35 32 27 27 31 32 32 32 33 32 30 29
43 44 45 46 46 46 45 45 44 44 43 41 39 37 37 36 36 37 36 31 28 28 29 29 28 28 30 32 32 33 33 29 25 24 28 32 33 33 32 31 30 30
42 43 44 46 46 46 45 46 46 44 41 38 37 37 37 36 38 40 36 29 27 27 27 28 27 27 28 30 30 31 31 28 24 21 25 30 32 31 31 32 30 30
42 42 44 44 46 47 47 45 44 43 40 39 38 39 39 40 41 38 32 27 27 26 25 26 26 26 27 28 29 30 30 27 24 21 20 23 24 24 27 30 29 28
42 42 44 44 46 48 47 44 42 42 42 41 41 41 40 40 39 33 28 27 26 23 22 22 23 25 25 25 26 28 28 25 23 23 22 22 21 20 21 22 23 24
Wind_Direction
321 317 314 310 302 293 288 289 289 290 292 293 291 289 288 285 279 268 255 248 243 241 241 240 240 240 238 236 233 232 232 232 232 230 227 228 227 225 225 225 226 227
316 315 313 310 305 297 290 286 285 285 288 291 290 289 289 287 283 276 264 252 245 241 241 241 241 239 238 236 233 231 231 232 232 230 228 227 227 226 226 226 226 226
308 306 305 304 302 302 298 292 284 280 283 287 289 289 289 288 285 278 268 258 248 243 241 241 241 239 238 236 233 231 231 231 232 231 229 228 227 226 227 227 227 227
301 301 301 301 300 302 302 297 289 282 280 282 285 288 290 290 287 279 269 260 252 245 243 242 241 240 238 236 233 232 232 232 232 231 230 230 228 227 227 227 227 227
300 300 302 303 303 304 302 296 290 287 284 279 280 286 290 291 289 280 269 262 255 249 245 244 243 240 238 236 233 232 232 233 232 231 231 231 230 229 228 227 226 226
305 304 305 305 304 303 300 295 291 289 285 280 279 283 287 288 288 281 270 262 258 252 248 246 245 242 239 236 234 233 232 232 232 230 231 232 231 230 229 228 226 226
310 309 307 304 303 301 297 294 292 290 284 280 280 284 285 284 285 282 273 265 260 255 252 249 246 244 240 236 234 233 232 232 232 230 230 231 231 230 229 228 227 226
313 310 308 307 305 302 299 295 293 290 285 278 277 280 282 281 280 280 276 270 263 258 255 252 248 245 241 236 233 232 231 230 231 230 231 231 230 229 227 226 226 226
315 314 314 312 310 307 304 300 294 288 281 276 275 275 276 277 276 276 276 272 267 263 258 254 250 245 242 237 234 232 230 230 230 230 231 231 230 229 227 224 224 225
320 320 318 316 314 312 308 304 298 291 284 281 279 275 274 276 276 275 276 273 270 266 260 255 251 246 242 238 235 232 231 230 229 229 230 230 230 229 227 224 224 224
324 321 319 316 315 314 314 313 309 303 296 290 283 279 278 279 279 279 277 274 271 269 263 257 252 247 243 239 236 233 232 231 230 229 230 230 231 230 227 225 224 224
324 320 317 316 316 318 320 320 318 313 306 298 291 287 284 282 279 280 279 275 273 271 266 260 254 248 244 240 237 234 232 231 231 230 230 231 231 230 228 226 225 225
321 317 317 320 323 325 327 326 325 322 317 310 302 293 286 281 279 280 280 276 274 272 267 261 255 249 244 240 238 235 232 230 230 230 231 231 231 229 227 226 225 224
316 317 323 328 329 330 330 329 329 327 324 319 313 303 293 287 286 287 284 278 274 271 267 262 255 248 243 239 237 234 231 229 229 228 229 229 229 228 227 226 226 225
317 323 328 329 329 328 326 325 323 321 319 318 316 312 305 297 291 289 285 278 275 272 267 260 253 247 242 238 235 233 230 228 227 226 226 226 226 227 228 228 228 227
326 329 328 326 325 323 320 318 317 315 314 312 311 308 304 297 291 286 282 277 275 272 265 258 251 245 241 237 234 232 229 227 226 225 224 225 224 225 227 229 229 230
330 328 325 322 319 316 313 311 310 308 307 306 304 301 298 294 289 285 282 279 276 271 263 256 251 245 239 237 236 232 228 225 224 224 223 223 224 224 225 227 228 229
325 323 320 317 315 313 311 309 307 304 303 302 300 298 295 292 289 285 283 280 275 268 261 255 251 245 239 237 236 234 231 224 220 221 222 222 223 223 224 224 224 225
322 321 319 317 316 315 313 312 310 307 305 304 302 300 297 293 289 286 284 280 274 267 261 255 250 245 240 238 237 236 234 226 218 217 219 220 221 221 221 221 220 221
320 319 317 317 316 316 315 314 313 310 308 307 304 302 299 295 292 290 287 283 276 267 261 256 249 242 239 240 238 237 236 230 221 216 215 217 218 217 218 219 219 220
319 319 317 317 316 315 314 313 312 311 310 309 307 302 299 296 293 291 288 283 275 267 262 256 248 239 237 239 240 238 236 233 227 218 212 212 214 214 215 217 218 220
320 319 317 316 316 315 314 312 312 312 311 310 306 302 300 297 293 291 289 282 275 271 264 255 245 238 237 239 239 239 237 234 231 220 209 208 211 213 215 218 219 220
320 320 317 315 315 314 312 312 312 312 310 309 306 303 302 300 296 294 291 284 278 274 264 253 243 237 238 240 239 238 235 233 231 219 205 206 212 215 216 218 219 218
319 318 316 314 313 311 311 312 311 311 310 309 307 303 301 300 298 295 291 285 282 275 261 249 242 236 236 240 239 236 234 230 228 217 201 203 211 214 216 217 217 217
317 316 314 313 312 311 311 311 310 309 308 307 305 302 299 298 295 292 290 290 286 273 254 243 240 237 236 239 239 238 235 230 224 216 205 202 205 207 210 213 214 214
316 314 313 312 311 311 310 310 309 307 306 305 303 300 298 296 294 294 297 295 285 267 247 237 236 235 234 237 239 240 239 232 220 213 212 213 212 210 209 210 214 216